CHINASAT 2E (ZX 2E)

Last updated on Sat Jun 29 2024 00:02:41 GMT+0000 (Coordinated Universal Time)

1 49062U 21071A 24180.55973559 -.00000288 00000+0 00000+0 0 9992 2 49062 0.0433 210.8598 0001751 289.2999 76.5261 1.00270068 10831
UTC large
Height (km)
Speed (km/s)
/
Latitude / Longitude
Inclination (degrees)
Orbital Period (minutes)
Azimuth
Elevation
Range (km)
Doppler Factor

Next 0 passes for location: London (51.5072 / 0.1276)

Sorry there are no passes over London.